VLPS

Pakse International Airport

Airport
ICAO code
VLPS
IATA Code
PKZ
Summary
ICAO Region
APAC
ICAO Territory
Location

Pakse, Champasak

Serving
Pakse
Elevation
351 ft
Coordinates
15° 7' 60" N , 105° 46' 50" E
KCC
Metar
VLPS 300300Z 14002KT 9999 FEW013 BKN050 30/25 Q1008 NOSIG

Pakse International Airport is one of the few international airports in Laos.

Climatology

Tropical Savanna climate (Köppen climate classification Aw)

Airport map

Aerial View

SKYbrary Partners:

Safety knowledge contributed by: